Location: Helsinki
(60.1699°N, 24.9384°E)
Time: 21:09:49
(UTC+02:00)

Transit 2A Rocket - Pass Details

Date: 29 September 2023
Orbit: 593 x 903 km, 66.7° (Epoch: 29 November)

Event Time Altitude Azimuth Distance (km) Brightness Sun altitude
Rises 14:17:47 0° 178° (S) 3,297 9.4 26.1°
Reaches altitude 10° 14:20:47 10° 163° (SSE) 2,313 8.5 25.9°
Maximum altitude 14:24:38 21° 116° (ESE) 1,617 6.9 25.8°
Drops below altitude 10° 14:28:17 10° 68° (ENE) 2,170 7.0 25.6°
Sets 14:31:00 0° 52° (NE) 3,036 7.6 25.5°
